Location: Conflandey
(47.7287°N, 6.0456°E)
Time: 03:33:22
(UTC+00:00)

Cosmos 2219 Rocket - Pass Details

Date: 24 October 2021
Orbit: 827 x 848 km, 71.0° (Epoch: 28 November)

Event Time Altitude Azimuth Distance (km) Brightness Sun altitude
Rises 19:53:46 0° 218° (SW) 3,356 5.5 -34.3°
Reaches altitude 10° 19:56:13 10° 222° (SW) 2,428 4.8 -34.7°
Enters shadow 19:57:17 16° 225° (SW) 2,044 4.4 -34.8°
